Temp
56 56 56 56 56 56 57 57 57 57 57 58 58 58 59 58 58 55 54 57 53 47 51 54 56 54 56 57 53 60 61 62 64 64 67 71 68 71 72 74 70 70 66 68 67 65 65 81 78 76 85 79 81 81
56 56 56 56 56 56 56 56 57 57 57 58 58 58 58 58 58 57 51 58 56 46 51 58 57 59 58 59 57 57 59 59 62 60 64 64 66 67 72 68 69 67 75 74 74 76 80 81 84 85 85 84 78 80
55 55 55 55 55 56 56 56 56 57 57 57 57 58 58 58 57 56 52 54 49 45 49 50 52 61 62 60 63 52 59 64 64 65 61 62 57 67 65 70 72 72 74 75 72 83 79 82 84 85 84 84 81 83
55 55 55 55 55 56 56 56 56 56 56 57 57 58 58 57 57 56 51 56 51 47 38 49 60 57 65 64 62 62 62 66 65 62 59 59 59 70 68 69 74 78 73 74 73 77 76 79 82 84 82 81 80 81
54 54 54 54 55 55 56 56 56 56 56 57 57 57 57 57 56 56 56 56 55 47 41 45 55 59 63 62 60 62 59 58 58 57 57 57 66 67 70 67 69 76 75 75 76 84 82 86 82 83 81 81 81 81
54 54 54 54 55 55 56 56 56 56 56 56 56 56 56 56 55 55 48 56 53 51 41 38 57 55 61 62 61 60 60 59 58 57 59 64 70 66 64 67 79 78 79 85 83 79 81 79 85 85 82 82 83 83
54 54 55 55 55 55 55 55 56 56 56 56 55 55 55 55 53 47 49 53 54 52 42 39 43 56 61 64 63 62 63 59 57 57 58 62 67 66 65 63 79 80 80 80 81 80 79 80 79 83 84 84 77 84
54 54 54 55 55 55 55 55 55 55 55 55 55 55 54 54 53 48 55 54 52 46 44 36 41 50 62 57 56 62 58 58 58 58 63 59 64 65 61 70 76 78 81 81 81 83 83 85 83 83 83 83 82 81
54 54 54 54 54 55 55 55 55 55 55 55 54 54 52 50 47 53 56 57 54 46 39 39 37 43 59 55 55 52 52 49 62 56 61 60 59 59 66 70 75 77 81 83 81 82 83 82 80 80 81 82 82 80
54 54 54 54 54 54 54 55 55 55 54 54 52 50 45 49 55 56 52 45 44 44 43 39 50 44 54 52 48 47 47 49 52 58 61 58 61 71 75 77 74 76 80 82 78 75 79 80 79 80 81 84 84 82
54 54 54 54 54 54 54 54 54 54 52 51 45 45 52 53 50 47 43 42 42 40 42 44 46 41 48 41 43 46 43 53 51 58 58 59 59 68 75 68 69 70 74 78 80 83 86 86 82 82 82 83 82 82
53 53 54 54 54 54 54 54 54 52 50 50 48 50 49 46 43 40 41 43 41 39 45 44 44 45 47 50 45 46 45 52 50 64 60 58 59 61 63 64 66 68 70 74 79 80 83 83 84 84 83 82 83 83
53 53 53 53 54 54 54 54 54 53 52 51 45 42 42 43 35 34 34 37 38 43 45 44 42 45 49 50 47 46 45 47 56 55 56 49 51 53 56 60 64 68 69 72 76 80 82 83 83 85 84 84 82 81
53 53 53 53 54 54 54 54 54 54 51 43 41 34 38 39 39 40 40 42 47 46 45 44 42 43 48 46 48 43 51 49 46 49 44 46 47 50 54 58 61 64 68 70 72 77 81 81 80 81 85 83 81 79
53 53 53 54 54 54 54 54 54 54 47 42 41 34 41 47 46 47 48 47 49 50 46 43 44 44 45 44 46 43 42 39 37 38 43 45 46 49 51 54 58 63 66 68 72 75 79 81 80 78 82 83 83 80
53 53 53 53 54 54 53 53 52 49 47 43 42 40 46 43 44 45 45 45 50 49 49 45 43 43 43 41 40 36 37 35 35 37 41 43 46 50 51 53 56 60 61 65 70 73 77 78 80 81 81 82 82 81
53 51 53 54 54 53 53 50 48 44 43 41 42 47 45 44 43 44 45 47 49 45 43 43 40 41 43 41 39 41 37 39 43 44 46 48 49 50 52 53 57 59 62 65 68 72 76 80 83 79 78 78 84 81
51 52 54 53 53 52 49 48 46 43 39 44 41 45 45 47 46 47 49 49 50 47 47 44 44 41 40 38 40 45 46 48 49 48 48 49 51 51 52 53 58 60 62 67 69 74 77 77 78 81 80 79 78 77
52 53 53 53 53 49 45 46 46 38 44 46 47 47 46 47 49 49 50 51 51 51 47 48 43 43 46 46 47 47 48 48 47 48 50 52 52 52 52 54 60 61 62 65 72 76 78 79 82 80 79 80 79 78
53 53 53 54 53 47 43 43 48 41 40 45 45 44 45 48 51 51 51 51 49 49 47 46 49 53 53 54 52 49 48 50 49 47 49 51 51 52 53 54 56 61 63 65 67 64 76 77 79 79 81 77 77 76
52 52 53 52 49 48 44 43 42 45 46 43 48 46 47 48 44 48 51 50 47 50 50 54 54 56 57 55 53 50 50 51 49 49 49 49 51 51 53 54 57 59 60 60 64 63 65 69 72 76 78 77 77 78
50 53 50 50 45 45 43 47 44 47 44 47 45 46 45 45 49 51 51 49 50 51 52 53 54 54 54 52 52 53 53 52 52 51 48 49 50 51 52 53 56 56 57 58 60 62 63 65 67 72 73 72 72 75
51 50 48 47 42 40 40 47 41 45 41 45 45 43 45 45 48 50 49 51 52 54 54 53 53 53 52 55 55 55 54 52 51 50 50 51 52 54 53 54 56 56 56 58 62 61 61 56 60 65 66 67 68 71
50 47 43 41 41 39 45 43 45 44 46 43 43 44 46 46 49 46 44 50 52 53 51 50 53 52 57 56 56 54 53 54 53 52 52 52 51 52 54 54 55 57 57 58 59 60 62 62 57 65 68 69 70 71
40 39 38 32 42 39 40 42 43 43 41 46 42 45 44 44 40 38 38 42 47 47 48 49 52 53 54 55 53 54 54 54 56 53 54 53 52 54 55 56 55 56 58 58 58 58 59 61 61 61 61 64 65 66
35 40 36 42 43 40 43 40 41 42 43 42 44 45 45 41 36 35 38 43 45 47 48 51 51 51 51 54 53 51 51 56 56 53 53 54 53 53 54 53 54 55 56 58 58 58 58 59 59 59 60 61 52 63
34 40 44 47 46 45 45 46 46 44 41 40 42 42 42 38 38 45 49 49 49 50 52 52 51 50 52 53 53 54 53 55 52 56 57 57 55 57 55 53 54 57 62 61 62 59 58 58 58 58 57 58 58 58
43 43 41 44 43 43 42 44 43 40 42 47 46 42 42 45 46 52 51 50 51 53 53 53 54 55 54 53 56 55 53 54 54 55 58 58 59 58 58 56 56 48 59 62 63 62 61 61 59 58 59 58 57 58
42 46 45 42 44 44 45 45 47 49 51 48 45 45 48 53 56 54 54 53 52 53 54 54 55 57 59 58 56 57 59 60 54 54 54 55 53 54 56 57 56 56 57 58 45 54 63 62 60 59 61 61 60 61
44 47 44 44 44 44 49 53 52 56 51 53 55 53 54 56 59 57 57 55 54 53 55 56 55 56 60 53 52 56 56 55 58 57 54 52 51 54 56 57 55 56 58 59 58 58 51 58 56 61 60 61 62 61
49 46 45 47 48 53 55 56 56 54 54 53 54 52 54 53 57 59 58 57 56 57 57 56 57 56 56 56 57 57 54 56 55 57 60 58 55 54 54 56 55 56 56 58 58 59 61 61 60 59 59 62 62 62
47 47 47 46 49 55 54 53 54 53 52 51 52 52 55 52 50 55 57 55 59 58 52 56 57 57 58 58 60 60 47 58 56 56 60 61 62 61 56 55 55 55 57 57 59 60 63 64 63 63 63 62 63 64
49 48 49 49 49 49 53 52 51 49 51 50 51 52 53 52 49 52 56 59 58 56 54 55 57 56 56 57 57 58 55 57 49 42 43 42 40 50 62 63 63 63 63 63 65 67 65 65 65 65 65 65 64 64
MSLP
1028.82 1028.65 1028.38 1028.14 1027.89 1027.63 1027.32 1026.98 1026.65 1026.32 1026.00 1025.66 1025.38 1025.13 1024.83 1024.58 1024.40 1024.40 1024.23 1024.01 1023.70 1023.09 1020.91 1020.11 1019.43 1018.62 1017.77 1017.22 1016.11 1014.67 1013.36 1011.96 1010.16 1008.41 1006.65 1004.87 1003.81 1002.90 1002.49 1002.21 1002.42 1002.50 1002.70 1002.33 1002.13 1001.43 1000.46 1000.40 1001.14 1000.71 999.65 1000.12 1000.68 1001.27
1028.47 1028.36 1028.14 1027.89 1027.71 1027.44 1027.13 1026.83 1026.51 1026.21 1025.91 1025.55 1025.27 1025.05 1024.86 1024.65 1024.41 1024.29 1024.20 1024.01 1024.07 1023.84 1021.25 1020.04 1019.14 1018.86 1018.61 1017.65 1017.58 1016.41 1014.61 1013.59 1012.32 1010.50 1008.59 1007.02 1004.93 1003.68 1002.29 1001.74 1002.30 1001.92 1001.12 1000.85 1001.05 999.74 999.57 999.92 999.45 999.65 999.82 1000.03 1000.89 1001.29
1028.04 1027.92 1027.75 1027.51 1027.31 1027.05 1026.77 1026.45 1026.17 1025.86 1025.56 1025.28 1024.99 1024.81 1024.61 1024.44 1024.27 1024.15 1023.89 1023.83 1023.96 1023.09 1020.78 1019.21 1017.44 1016.88 1017.10 1016.86 1017.00 1016.65 1014.80 1013.82 1012.72 1012.45 1011.19 1009.00 1006.49 1004.47 1002.50 1001.44 1001.05 1001.14 1001.08 1000.63 1000.68 999.08 999.03 999.31 999.93 999.87 1000.02 1000.05 1000.50 1000.94
1027.55 1027.46 1027.37 1027.23 1026.98 1026.68 1026.44 1026.16 1025.84 1025.54 1025.26 1024.95 1024.64 1024.42 1024.23 1024.00 1023.76 1023.69 1023.60 1023.29 1023.54 1023.07 1021.65 1017.99 1016.77 1016.14 1015.76 1015.76 1015.81 1015.52 1014.46 1013.73 1013.42 1013.15 1011.73 1009.79 1007.52 1005.25 1003.06 1001.92 1000.40 999.99 1000.37 999.76 999.53 999.16 999.21 999.16 999.41 999.64 1000.08 1000.35 1000.72 1001.24
1027.13 1027.03 1026.94 1026.74 1026.47 1026.17 1025.87 1025.61 1025.37 1025.14 1024.88 1024.55 1024.26 1024.02 1023.82 1023.67 1023.47 1023.18 1022.64 1022.16 1022.49 1022.79 1021.13 1018.59 1016.85 1014.28 1013.91 1014.39 1014.39 1014.57 1014.38 1013.88 1013.55 1012.55 1011.04 1009.45 1007.69 1006.25 1003.68 1002.64 1000.48 999.43 998.79 998.71 997.94 997.97 998.09 997.79 998.32 999.25 999.77 1000.20 1000.78 1001.18
1026.68 1026.58 1026.36 1026.16 1025.91 1025.61 1025.35 1025.09 1024.79 1024.50 1024.29 1024.03 1023.74 1023.47 1023.27 1023.22 1023.15 1022.71 1021.79 1021.73 1022.11 1022.42 1022.01 1019.08 1015.80 1013.78 1012.69 1012.71 1012.56 1012.68 1012.68 1013.04 1012.98 1011.56 1010.34 1008.69 1007.40 1006.71 1003.78 1000.95 998.75 998.31 998.10 997.80 997.70 998.11 998.25 998.33 998.21 999.10 999.60 1000.13 1000.84 1001.19
1026.06 1025.90 1025.72 1025.49 1025.24 1024.98 1024.72 1024.48 1024.20 1023.90 1023.64 1023.38 1023.11 1022.81 1022.54 1022.45 1022.72 1022.67 1021.60 1021.57 1021.92 1022.38 1021.93 1019.56 1016.39 1013.61 1012.16 1011.26 1010.97 1010.93 1011.04 1011.39 1011.37 1011.08 1009.30 1008.14 1006.76 1006.09 1003.82 1001.14 998.27 997.78 997.83 997.93 998.00 998.16 998.19 998.29 998.30 999.09 999.64 1000.27 1001.09 1001.17
1025.39 1025.24 1025.09 1024.91 1024.68 1024.36 1024.05 1023.78 1023.55 1023.30 1022.97 1022.61 1022.26 1021.86 1021.53 1021.46 1021.46 1021.20 1020.27 1021.08 1021.65 1022.10 1021.58 1019.84 1016.39 1013.74 1011.72 1010.92 1010.45 1010.62 1010.27 1010.20 1009.54 1008.52 1007.60 1006.90 1006.33 1005.46 1002.47 1000.11 999.11 998.42 997.79 997.69 997.58 997.72 997.93 997.85 998.64 999.12 999.78 1000.39 1000.78 1001.29
1024.78 1024.64 1024.49 1024.32 1024.07 1023.78 1023.55 1023.27 1022.97 1022.70 1022.36 1021.89 1021.43 1020.94 1020.76 1020.69 1020.52 1020.05 1019.89 1020.07 1020.73 1021.43 1020.20 1018.51 1016.32 1013.12 1011.58 1011.33 1011.19 1011.06 1010.18 1008.76 1007.22 1006.23 1005.69 1005.63 1004.03 1002.13 1000.97 999.35 999.00 998.32 997.38 997.19 997.33 997.52 998.00 998.09 998.54 999.09 999.79 1000.31 1000.63 1001.32
1024.09 1023.96 1023.95 1023.72 1023.39 1023.21 1023.06 1022.78 1022.46 1022.22 1021.80 1021.36 1021.14 1020.70 1020.27 1020.15 1020.03 1019.74 1019.23 1019.58 1019.82 1019.48 1018.86 1016.86 1015.83 1013.69 1012.94 1011.92 1011.30 1010.95 1009.76 1007.50 1004.84 1003.79 1004.47 1003.49 1001.37 1000.88 1000.20 999.22 999.32 998.95 997.89 997.50 997.36 997.54 997.80 998.09 998.62 998.81 999.20 999.61 1000.20 1001.01
1023.39 1023.36 1023.24 1023.01 1022.79 1022.64 1022.55 1022.38 1022.17 1021.87 1021.50 1021.47 1021.21 1020.68 1020.16 1019.99 1019.75 1019.41 1018.84 1018.38 1017.86 1017.62 1017.09 1015.63 1014.43 1013.52 1012.68 1011.71 1010.74 1010.24 1008.56 1004.93 1002.78 1001.47 1001.70 1000.97 999.82 1000.09 999.91 999.63 999.92 999.61 998.71 997.98 997.57 996.98 996.72 996.99 997.65 998.38 999.08 999.59 1000.30 1000.95
1022.72 1022.64 1022.47 1022.37 1022.15 1022.02 1022.09 1022.05 1021.95 1021.97 1021.79 1021.66 1021.77 1021.13 1020.66 1019.94 1019.26 1018.86 1017.97 1017.38 1017.05 1016.36 1015.73 1014.54 1013.78 1012.98 1011.42 1010.37 1009.67 1008.89 1006.93 1003.90 1001.28 1000.33 1000.42 999.90 1000.83 1001.09 1001.27 1000.66 1000.40 1000.25 999.35 998.45 997.76 997.51 997.21 997.12 997.60 997.82 998.50 999.32 1000.08 1000.92
1021.99 1021.96 1021.89 1021.77 1021.58 1021.53 1021.58 1021.53 1021.54 1021.54 1021.44 1021.47 1021.41 1020.92 1020.20 1019.24 1018.81 1018.20 1017.60 1017.18 1016.75 1016.03 1014.96 1014.11 1013.13 1012.21 1010.23 1009.00 1008.62 1007.87 1005.06 1001.59 1001.53 1000.83 1000.60 1002.81 1003.57 1003.24 1002.99 1002.16 1001.13 1000.65 1000.05 999.10 998.13 997.36 997.13 997.29 997.59 997.87 998.27 999.38 1000.06 1000.99
1021.40 1021.35 1021.23 1021.21 1021.15 1021.15 1021.17 1021.17 1021.18 1021.30 1021.21 1020.95 1020.69 1020.28 1019.38 1018.44 1018.03 1017.50 1017.09 1016.66 1016.11 1015.35 1014.32 1013.53 1012.82 1011.59 1009.62 1008.66 1007.75 1006.64 1003.77 1002.87 1002.47 1002.31 1003.99 1004.98 1005.10 1004.71 1004.00 1003.40 1002.17 1000.98 1000.43 999.63 998.75 997.88 997.45 997.40 997.71 997.99 998.27 999.34 999.96 1000.88
1020.83 1020.72 1020.76 1020.63 1020.54 1020.65 1020.81 1020.91 1021.00 1020.98 1020.88 1020.71 1020.52 1019.57 1018.34 1017.66 1017.43 1017.03 1016.70 1016.20 1015.38 1014.77 1014.00 1012.54 1011.84 1011.08 1009.65 1008.71 1008.17 1007.43 1005.79 1005.18 1006.40 1007.25 1006.93 1006.39 1005.88 1005.58 1005.15 1003.94 1002.60 1001.47 1000.67 999.77 999.05 998.15 997.59 997.53 997.72 998.08 998.36 998.93 999.82 1000.64
1020.26 1020.45 1020.30 1020.21 1020.38 1020.45 1020.57 1020.79 1020.95 1020.96 1020.77 1020.53 1019.99 1018.95 1017.96 1017.70 1016.86 1016.65 1016.34 1015.67 1015.07 1014.24 1013.29 1012.42 1011.24 1010.65 1009.96 1009.58 1009.00 1008.80 1008.63 1008.49 1009.00 1009.21 1008.33 1007.26 1006.14 1005.31 1004.37 1003.58 1002.50 1001.51 1000.81 999.97 999.12 998.31 997.54 997.49 997.38 997.63 998.35 998.77 999.46 1000.14
1019.97 1020.12 1020.05 1019.95 1020.16 1020.34 1020.53 1020.71 1020.80 1020.76 1020.36 1019.89 1018.86 1018.39 1018.18 1017.76 1016.92 1016.42 1016.15 1015.45 1015.12 1014.57 1013.41 1012.74 1012.01 1011.22 1010.85 1010.14 1009.90 1009.84 1009.78 1009.83 1009.40 1008.85 1007.95 1007.16 1006.63 1005.80 1004.56 1003.34 1002.29 1001.35 1000.34 999.37 998.70 998.07 997.38 997.38 997.47 997.84 998.23 998.99 999.44 1000.09
1019.71 1019.78 1019.92 1020.11 1020.29 1020.31 1020.48 1020.61 1020.50 1020.22 1019.75 1018.90 1018.51 1017.77 1017.74 1017.11 1016.36 1015.84 1015.42 1015.12 1014.76 1014.14 1013.35 1012.77 1012.64 1011.67 1010.98 1010.70 1010.29 1009.92 1009.59 1009.17 1008.96 1008.44 1007.71 1006.47 1005.41 1004.74 1004.01 1002.82 1001.56 1000.66 999.72 998.57 998.01 997.37 997.34 997.41 997.49 997.80 998.33 999.01 999.69 1000.30
1019.47 1019.73 1019.88 1020.11 1020.10 1020.15 1020.36 1020.55 1020.43 1019.99 1018.83 1018.37 1017.85 1017.39 1016.95 1016.16 1015.49 1015.10 1014.74 1014.29 1014.25 1013.90 1013.43 1012.34 1011.63 1010.85 1010.51 1010.52 1010.08 1009.67 1009.54 1009.36 1008.85 1008.31 1007.57 1007.32 1006.64 1005.09 1003.79 1002.89 1001.86 1000.59 999.75 998.78 997.42 996.93 996.98 997.09 997.25 998.02 998.51 999.09 999.71 1000.61
1019.57 1019.75 1019.94 1020.06 1019.86 1019.94 1020.22 1020.25 1020.32 1019.78 1018.66 1017.90 1017.54 1016.71 1016.05 1015.25 1014.52 1014.17 1013.86 1013.57 1013.40 1013.11 1012.39 1011.49 1010.47 1009.96 1010.09 1010.07 1010.15 1009.69 1009.50 1009.13 1009.04 1008.34 1006.99 1005.45 1004.72 1004.65 1004.38 1003.56 1002.08 1000.74 999.88 999.08 998.27 997.58 997.57 997.90 998.30 998.76 998.92 999.53 1000.03 1000.85
1019.75 1019.80 1019.95 1019.87 1019.85 1020.01 1020.13 1019.78 1019.66 1018.96 1018.16 1017.57 1016.62 1016.17 1015.06 1014.60 1014.22 1013.60 1013.14 1013.16 1012.84 1012.07 1011.33 1010.62 1010.35 1010.21 1009.82 1009.82 1009.88 1009.52 1009.52 1009.17 1008.82 1008.48 1007.57 1006.54 1006.18 1005.45 1004.35 1003.84 1002.47 1001.15 1000.62 1000.13 999.30 999.08 998.65 998.87 999.17 999.62 999.73 1000.17 1000.75 1001.48
1019.67 1019.79 1019.84 1019.83 1019.83 1019.99 1019.93 1019.67 1019.27 1018.66 1018.16 1016.72 1016.22 1015.60 1014.71 1013.91 1013.24 1012.99 1013.15 1012.76 1012.14 1011.75 1011.52 1010.95 1010.40 1010.30 1009.94 1009.60 1009.42 1009.06 1009.24 1009.66 1009.32 1008.61 1008.21 1007.72 1007.17 1006.21 1005.16 1003.96 1002.47 1002.01 1001.70 1001.26 1000.67 1000.19 1000.09 1000.09 1000.32 1000.28 1000.64 1001.46 1002.05 1002.79
1019.67 1019.69 1019.60 1019.70 1019.84 1019.71 1019.54 1019.47 1018.94 1017.83 1017.19 1016.17 1015.71 1015.03 1014.29 1013.81 1013.30 1013.23 1012.65 1012.30 1012.03 1012.00 1011.64 1011.13 1010.46 1010.16 1009.98 1009.62 1009.40 1008.91 1008.66 1008.55 1008.60 1008.33 1007.89 1007.19 1006.30 1006.08 1005.90 1004.30 1002.91 1002.82 1002.73 1002.39 1001.96 1001.64 1001.44 1001.64 1001.63 1001.50 1002.17 1002.83 1003.35 1003.89
1019.55 1019.40 1019.47 1019.55 1019.46 1019.12 1018.97 1018.42 1017.98 1017.28 1016.50 1016.02 1015.27 1014.54 1014.00 1013.79 1013.30 1012.94 1012.48 1012.02 1011.77 1011.78 1011.61 1011.10 1010.54 1009.95 1009.43 1009.25 1009.02 1008.80 1008.40 1008.26 1008.04 1007.50 1007.25 1006.73 1006.51 1006.06 1004.75 1004.09 1003.74 1003.73 1003.83 1003.59 1003.08 1002.87 1002.90 1002.96 1002.90 1002.97 1003.43 1004.11 1004.63 1004.78
1019.56 1019.94 1019.85 1019.32 1019.11 1018.90 1018.17 1017.41 1016.93 1016.56 1015.95 1015.29 1014.97 1014.29 1014.04 1013.99 1013.65 1013.47 1013.06 1012.61 1012.02 1011.74 1011.45 1011.15 1010.54 1010.24 1009.47 1008.99 1008.98 1008.58 1008.31 1007.76 1007.37 1007.20 1006.97 1006.97 1006.63 1006.05 1005.42 1004.58 1004.00 1004.76 1004.91 1004.83 1004.43 1003.69 1004.12 1004.31 1004.40 1004.80 1005.16 1005.61 1005.93 1006.32
1019.17 1019.21 1019.14 1018.50 1018.26 1018.04 1017.30 1016.71 1016.27 1016.05 1015.66 1015.14 1014.66 1014.39 1014.22 1014.10 1014.00 1013.55 1013.14 1012.28 1011.95 1011.76 1011.50 1011.20 1010.78 1010.49 1010.09 1009.85 1009.41 1009.23 1008.83 1008.51 1008.07 1007.64 1007.52 1007.46 1007.18 1006.90 1006.61 1006.37 1005.92 1005.91 1005.63 1005.34 1005.59 1005.00 1005.31 1005.56 1005.56 1006.23 1007.10 1007.47 1007.53 1007.63
1018.75 1018.30 1018.20 1018.14 1017.77 1017.40 1016.70 1016.17 1016.10 1015.85 1015.44 1015.02 1014.57 1014.32 1014.15 1013.74 1013.31 1012.80 1012.27 1012.19 1011.87 1011.49 1011.29 1011.20 1010.95 1010.55 1010.45 1010.12 1009.68 1009.48 1009.45 1009.00 1008.93 1008.42 1007.84 1007.38 1007.05 1007.15 1006.63 1006.55 1006.22 1006.76 1006.71 1006.69 1005.69 1004.94 1006.58 1007.00 1006.54 1007.15 1008.55 1008.55 1008.37 1008.98
1018.15 1017.95 1017.56 1017.35 1017.15 1016.81 1016.26 1015.75 1015.48 1015.28 1015.09 1014.73 1014.44 1013.90 1013.44 1012.88 1012.60 1012.32 1012.31 1012.13 1011.75 1011.24 1011.04 1010.89 1010.81 1010.42 1010.01 1009.98 1009.81 1009.43 1009.07 1008.94 1008.43 1007.84 1007.84 1007.86 1007.62 1007.69 1007.97 1007.56 1007.25 1007.10 1006.72 1006.61 1006.92 1007.61 1006.28 1006.74 1008.00 1008.67 1009.11 1008.85 1009.34 1010.11
1017.61 1017.24 1017.21 1016.67 1016.36 1015.93 1015.38 1014.86 1014.36 1014.22 1014.10 1014.10 1013.78 1013.24 1012.86 1012.41 1012.09 1012.16 1012.20 1012.12 1011.74 1011.22 1010.66 1010.38 1010.26 1010.34 1009.65 1009.30 1009.11 1008.88 1008.75 1008.38 1008.27 1008.14 1008.22 1008.61 1008.90 1008.97 1008.82 1008.37 1007.90 1007.74 1007.63 1007.46 1007.49 1006.98 1007.00 1007.91 1008.36 1008.73 1008.83 1009.21 1009.87 1010.60
1016.67 1016.68 1016.28 1015.82 1015.37 1014.65 1013.95 1013.70 1013.41 1013.38 1013.62 1013.50 1013.30 1013.06 1012.67 1012.21 1011.99 1012.21 1012.07 1011.89 1011.64 1011.38 1011.04 1010.75 1010.32 1009.96 1009.63 1009.46 1009.13 1008.80 1008.82 1008.65 1008.46 1008.59 1008.74 1009.01 1009.23 1009.24 1009.04 1008.67 1008.36 1008.60 1008.67 1008.37 1008.35 1008.71 1008.71 1008.53 1009.05 1009.27 1009.48 1009.87 1010.49 1011.00
1016.01 1016.05 1015.67 1015.01 1014.26 1013.46 1013.21 1013.08 1013.12 1013.21 1013.18 1013.13 1013.05 1012.86 1012.47 1012.31 1012.08 1012.08 1012.02 1011.89 1011.75 1011.47 1011.11 1010.81 1010.52 1010.34 1009.90 1009.55 1009.35 1009.13 1009.38 1009.65 1009.43 1009.51 1009.38 1009.46 1009.61 1009.40 1009.47 1009.56 1009.39 1009.31 1009.29 1009.19 1009.21 1009.12 1008.90 1009.04 1009.45 1009.69 1009.92 1010.43 1010.95 1011.19
1015.15 1014.87 1014.57 1014.10 1013.49 1013.08 1013.13 1012.89 1012.77 1012.74 1012.81 1012.80 1012.73 1012.82 1012.50 1012.39 1012.10 1011.94 1011.98 1011.94 1011.50 1011.34 1011.45 1011.21 1010.82 1010.75 1010.63 1010.42 1010.24 1010.13 1010.67 1010.58 1010.49 1010.43 1010.18 1010.20 1010.19 1010.27 1010.30 1010.10 1010.15 1010.23 1010.08 1009.85 1009.73 1009.71 1009.81 1009.74 1009.79 1010.01 1010.18 1010.81 1011.33 1011.85
1014.19 1014.16 1013.95 1013.70 1013.29 1012.90 1012.83 1012.81 1012.63 1012.75 1012.84 1012.76 1012.65 1012.63 1012.48 1012.40 1012.19 1012.10 1011.99 1011.98 1011.93 1011.86 1011.84 1011.70 1011.47 1011.39 1011.21 1010.87 1010.72 1010.59 1010.54 1010.76 1010.97 1010.99 1010.98 1010.91 1010.80 1010.52 1010.53 1010.72 1010.51 1010.22 1010.01 1009.86 1009.90 1009.63 1009.59 1009.73 1009.77 1010.09 1010.53 1011.08 1011.33 1011.52
Wind_Speed
11 12 13 14 14 15 15 15 15 15 15 15 15 15 16 15 14 6 3 5 4 3 11 6 6 8 6 4 5 9 10 1 4 5 4 4 6 8 6 5 7 9 8 6 4 7 10 9 10 9 3 4 11 13
12 13 14 14 15 15 15 15 16 15 15 15 15 14 13 13 13 6 2 2 2 4 9 12 21 21 22 24 12 5 8 10 4 5 3 5 4 3 7 12 1 6 8 5 10 8 3 14 3 6 4 5 6 13
12 13 14 14 14 15 16 16 16 16 16 15 15 15 14 13 13 8 4 3 2 4 11 8 7 7 13 18 17 7 5 7 6 5 4 4 7 3 6 8 6 8 7 7 3 10 9 7 11 6 5 4 7 10
13 14 14 14 15 16 16 17 17 16 16 16 16 16 15 13 12 11 5 3 3 4 5 9 7 9 6 9 13 22 19 12 9 6 4 5 6 2 4 6 8 3 10 8 6 8 3 8 15 11 7 6 8 10
14 14 14 15 16 16 17 17 17 17 16 16 16 16 16 15 13 9 8 7 7 5 5 9 19 26 17 19 22 20 20 17 9 5 8 8 7 7 4 3 6 7 7 8 8 8 5 5 14 13 11 10 11 13
14 14 15 16 16 17 17 17 17 17 17 17 17 17 17 14 11 5 4 2 5 4 4 7 6 18 21 15 14 17 16 12 12 7 6 7 15 7 6 5 7 10 8 7 3 3 6 3 13 15 12 13 12 11
15 15 16 16 16 17 17 17 17 17 17 17 17 17 16 13 5 4 4 2 6 4 3 7 7 6 10 12 4 6 14 10 10 10 12 11 4 6 9 12 8 10 9 9 7 6 5 10 9 13 13 13 11 9
15 15 16 16 16 16 16 16 16 16 17 17 18 18 18 17 14 8 11 15 6 2 3 5 8 6 4 9 6 2 2 9 10 11 9 11 8 7 8 16 16 9 8 7 9 11 5 10 14 13 14 14 13 11
15 15 15 15 15 15 15 15 15 16 16 17 18 20 4 2 3 2 4 1 8 6 4 5 5 8 2 2 2 3 3 7 7 12 13 7 9 12 13 18 11 13 7 6 6 8 7 11 15 15 15 14 12 12
15 14 14 15 15 15 14 13 13 14 15 16 3 2 3 2 8 12 2 4 5 5 4 6 7 14 10 12 5 3 4 8 9 11 9 10 14 13 14 14 9 9 9 6 7 6 7 11 15 17 18 14 12 14
13 14 14 14 14 13 12 11 12 10 5 3 3 3 4 7 2 2 3 5 5 5 4 4 7 10 5 8 4 5 3 7 8 11 14 10 11 14 17 12 6 7 7 9 9 6 11 13 17 16 13 12 11 12
14 13 13 13 12 11 11 9 7 1 1 2 4 5 3 3 2 4 3 3 3 2 4 4 5 8 7 6 5 6 6 6 8 11 10 7 6 8 8 14 13 11 9 11 9 6 4 10 13 13 15 14 13 12
13 12 12 12 10 10 10 8 7 8 7 1 1 3 3 1 2 2 2 2 4 4 4 5 10 5 5 6 3 4 7 5 3 7 3 6 11 13 14 14 14 12 11 11 12 6 3 5 9 12 13 13 15 13
12 11 10 10 10 9 8 7 6 2 2 2 2 5 3 3 3 3 3 4 5 6 12 11 7 5 3 4 4 8 5 1 6 4 5 7 14 16 14 14 14 15 12 11 12 7 7 7 11 10 11 13 14 14
10 9 9 9 8 8 6 4 3 1 1 3 2 4 4 4 4 5 8 7 7 10 8 9 4 4 3 4 1 4 9 6 8 5 4 8 17 15 14 14 14 15 13 11 10 9 7 9 10 9 10 11 13 13
7 4 4 5 4 4 5 4 1 1 1 2 4 5 5 7 7 4 6 8 5 7 8 4 4 4 3 5 6 6 5 7 5 5 10 12 16 15 14 13 13 14 14 13 12 11 9 10 12 11 10 10 11 13
7 2 1 1 7 7 5 1 1 3 2 3 4 5 8 10 10 8 4 6 4 5 4 4 5 5 5 4 5 2 1 4 3 7 9 13 15 16 14 14 12 12 12 14 14 12 11 9 8 10 11 9 10 9
2 1 4 9 4 2 1 0 2 2 5 5 5 4 3 7 9 8 5 4 3 3 4 2 2 3 3 4 4 3 3 5 3 6 9 14 14 14 13 14 14 12 11 10 14 11 11 12 12 9 12 12 11 10
4 4 9 6 3 2 1 2 1 3 5 4 6 6 5 6 8 9 9 8 6 5 5 3 4 3 2 1 5 6 5 4 5 7 9 12 12 12 14 14 14 10 8 5 9 9 10 13 10 10 10 9 10 8
9 8 7 3 1 1 1 2 1 3 4 2 4 5 4 6 7 6 7 5 3 3 4 4 3 1 2 4 3 6 5 5 5 7 9 10 11 13 13 12 9 10 6 5 5 6 9 9 8 8 10 11 12 11
3 3 3 1 1 0 1 1 3 4 4 4 4 4 5 3 4 3 2 0 2 3 3 3 5 7 8 8 7 7 5 4 4 4 6 9 10 11 10 9 8 8 7 6 5 7 9 9 8 9 11 11 11 11
2 5 1 1 1 1 3 2 4 3 4 4 4 2 5 4 3 1 1 3 2 1 3 5 7 8 8 8 6 6 5 3 4 4 6 8 6 6 9 8 6 8 8 7 7 7 9 8 7 9 12 12 12 12
4 1 1 2 1 1 3 1 4 3 4 3 3 4 3 3 2 3 3 1 0 1 4 6 10 9 7 5 4 4 3 4 3 4 5 5 6 7 7 6 6 7 6 8 8 9 9 8 9 11 11 11 11 14
1 2 1 2 3 2 1 3 3 3 3 3 3 6 3 2 4 2 3 1 1 1 3 6 7 6 1 1 2 3 4 3 4 4 2 4 5 6 7 7 5 6 6 5 7 9 9 10 10 9 11 12 12 13
1 1 2 3 2 3 4 3 3 3 4 5 3 4 3 3 4 4 4 3 5 4 4 5 5 5 5 3 2 2 3 5 7 6 3 4 5 5 5 6 7 6 5 2 5 10 10 11 12 12 12 11 13 14
2 3 4 2 2 4 2 3 2 3 4 3 3 2 2 3 2 5 3 3 3 2 4 6 5 6 5 5 6 5 6 8 7 3 3 2 3 3 4 4 4 4 5 6 4 8 9 8 12 16 12 15 14 12
3 3 3 3 3 2 4 3 1 2 3 3 3 3 2 3 3 3 3 3 3 3 4 4 4 5 5 6 5 4 3 5 3 5 3 3 3 3 5 6 8 3 5 5 4 11 7 9 11 11 7 5 9 8
4 3 4 2 3 3 3 2 2 3 3 3 3 2 3 4 3 3 1 4 7 7 4 2 2 4 5 4 4 5 4 3 4 4 0 6 7 7 6 5 7 14 5 4 5 5 7 8 6 7 8 5 5 5
4 3 3 3 3 4 4 4 3 3 3 3 2 2 2 2 2 2 2 5 5 4 4 4 3 3 3 3 2 3 2 1 3 4 7 6 4 4 5 4 5 5 5 7 13 9 8 6 4 6 8 7 6 6
4 5 3 3 4 4 4 6 3 2 3 3 2 2 3 2 2 2 3 3 4 5 5 4 5 4 4 4 5 6 6 5 6 4 4 3 2 3 4 6 7 6 4 5 6 5 7 9 7 7 8 8 7 7
2 4 4 4 4 3 3 3 3 2 2 3 3 3 3 3 2 0 3 4 3 3 4 5 3 4 5 6 7 8 8 8 6 6 5 4 2 4 5 5 5 5 5 4 4 5 4 5 7 7 8 10 10 9
4 6 3 4 3 2 3 2 1 1 0 1 1 2 2 2 2 2 2 3 3 5 5 4 5 6 5 3 3 4 3 4 4 4 7 5 5 7 5 4 3 1 1 1 2 1 3 6 6 8 10 10 9 10
3 4 4 3 3 3 0 3 1 1 1 1 1 2 1 2 2 2 1 1 2 3 3 3 3 3 4 5 5 4 4 4 5 8 8 7 7 6 3 3 2 3 4 4 5 6 7 8 8 9 9 10 10 10
Wind_Direction
308 315 322 329 330 331 334 334 335 334 333 338 339 343 346 354 -0 17 327 10 15 297 282 264 274 250 276 278 282 345 321 103 297 259 262 226 236 200 200 209 189 206 191 207 181 216 243 149 141 207 198 141 174 185
301 306 314 320 321 323 325 327 327 329 327 329 330 329 331 337 339 7 309 299 353 236 273 292 274 271 261 257 274 261 288 306 285 294 357 301 263 222 209 229 164 225 210 213 225 208 141 194 266 181 173 140 176 186
293 299 305 309 311 315 318 317 318 320 322 321 323 321 322 324 325 328 298 294 243 266 282 269 244 256 236 234 225 235 215 220 232 23 312 292 273 294 201 219 197 212 181 223 182 220 215 207 227 218 200 141 164 165
290 296 301 304 306 308 309 309 311 312 314 316 315 316 317 315 313 315 286 263 252 275 268 283 299 275 269 225 210 218 243 265 283 306 276 266 277 285 302 312 225 202 158 190 230 268 295 240 224 187 160 127 134 159
289 293 296 299 300 302 304 306 307 308 308 310 310 309 309 311 311 305 270 255 228 228 290 285 298 277 264 248 251 236 234 236 240 243 226 241 261 266 242 256 244 193 176 191 220 223 233 230 191 176 162 162 160 163
284 287 292 297 297 299 301 301 302 304 304 302 304 303 301 301 316 315 302 129 197 181 299 296 312 280 291 277 251 232 224 226 220 209 231 233 246 290 270 252 236 203 197 202 226 233 219 323 172 156 145 157 163 174
280 286 291 291 294 297 297 298 300 300 298 298 297 294 289 288 277 208 257 96 138 154 262 293 278 258 289 292 227 229 219 206 206 225 236 257 245 209 254 262 282 216 200 209 220 173 189 180 169 161 142 145 152 150
278 282 286 290 292 296 298 300 301 301 299 296 292 290 290 287 272 249 243 213 151 224 222 262 269 278 234 300 294 32 270 200 208 218 214 214 225 224 252 242 249 250 196 210 202 204 6 122 134 133 136 150 151 151
278 282 285 288 292 296 298 298 301 303 303 299 299 301 297 189 206 235 267 237 186 215 224 230 243 292 330 297 343 315 272 210 225 209 212 203 208 213 223 255 253 230 199 155 151 159 163 158 147 141 152 159 158 160
277 281 284 287 291 293 295 302 307 310 305 312 309 310 277 198 318 302 174 161 190 197 237 259 250 260 295 297 269 260 227 238 201 201 176 228 230 210 245 259 276 296 269 174 130 132 161 161 170 161 175 163 163 164
276 278 282 288 290 290 293 298 307 320 330 349 329 274 332 317 275 209 246 226 176 225 212 242 247 274 238 241 233 196 235 240 222 170 189 203 211 199 236 288 327 333 303 281 299 315 193 183 173 166 162 160 157 158
271 274 279 284 287 291 292 292 304 310 257 305 302 294 286 278 241 238 231 312 265 295 252 261 287 276 261 209 209 204 242 246 221 161 203 201 59 40 321 301 316 310 317 313 290 267 226 184 185 175 158 156 156 155
269 273 275 279 283 282 281 285 286 251 276 257 231 255 251 217 273 248 278 260 289 290 264 285 310 278 269 229 217 247 234 206 334 196 135 51 9 2 341 321 315 313 303 301 290 285 266 213 179 192 165 154 150 149
265 268 277 278 272 271 270 277 280 283 250 262 306 295 249 267 251 221 240 265 275 267 291 296 292 262 268 258 212 265 276 325 314 130 65 360 345 329 329 317 309 303 296 291 291 286 249 221 200 191 180 154 150 156
261 271 273 275 267 257 239 240 243 213 239 262 284 251 244 267 276 274 287 280 276 283 288 300 250 244 279 298 92 309 318 42 20 21 301 319 323 322 312 312 309 301 291 280 276 268 244 220 196 190 181 172 167 150
254 256 233 231 264 207 163 130 142 194 246 250 236 262 264 273 277 291 297 291 309 303 299 274 298 311 338 322 11 0 347 6 339 281 289 303 303 314 318 310 303 298 280 267 258 252 242 220 200 190 163 170 172 164
156 222 260 147 155 142 154 137 150 216 250 239 241 252 270 278 273 282 281 291 300 303 308 307 317 353 289 359 357 7 225 242 266 296 295 318 308 306 309 306 300 299 278 255 242 233 222 211 178 158 152 160 159 155
181 199 188 138 136 126 86 149 250 254 250 249 253 256 232 250 277 281 271 266 289 295 284 292 287 291 328 356 325 319 285 283 231 290 295 298 316 323 319 315 320 320 301 254 222 209 184 173 169 167 141 138 127 123
167 164 147 153 151 124 184 188 237 267 258 277 266 263 255 264 260 261 274 277 258 260 278 251 258 261 358 226 302 312 316 303 310 312 301 286 287 316 324 321 320 346 343 320 191 182 182 174 160 152 137 137 127 137
133 141 141 140 106 124 222 193 201 256 269 282 261 261 253 268 291 273 272 259 226 219 237 235 249 302 286 316 271 279 285 302 299 306 306 322 340 337 319 310 318 354 360 16 76 123 140 132 134 144 141 140 134 129
128 175 175 126 110 131 290 243 237 241 286 264 288 278 283 266 262 273 294 0 233 239 260 289 303 309 306 294 273 275 288 287 287 289 309 323 323 311 320 313 327 9 26 25 70 79 88 111 123 136 130 115 111 111
128 141 141 139 84 175 260 218 271 295 260 275 277 246 274 286 281 252 327 232 249 329 287 304 302 310 314 332 327 295 292 285 277 281 273 280 299 310 309 314 3 27 27 38 51 73 85 90 104 113 111 109 110 113
134 160 123 140 225 208 259 191 254 225 258 278 300 272 254 279 305 306 257 231 115 269 298 292 302 302 280 298 313 310 311 316 304 290 299 308 331 322 296 307 30 33 35 41 55 63 69 73 82 96 99 105 112 108
160 110 174 217 193 275 271 243 226 263 263 268 282 293 294 301 310 257 271 274 191 283 303 314 316 316 265 205 356 341 327 304 312 315 326 335 316 323 341 350 11 38 11 14 62 76 71 70 73 87 102 112 115 110
217 128 139 261 207 239 245 256 243 260 261 311 289 293 11 314 347 344 310 290 300 309 303 304 316 316 319 287 242 300 327 336 339 333 6 341 326 336 10 17 23 25 351 331 61 77 73 68 67 65 68 86 101 101
222 179 183 218 180 228 240 270 252 298 302 284 265 335 348 325 320 275 249 256 265 286 298 312 311 322 329 342 346 350 337 339 327 322 358 349 317 327 351 28 26 32 360 3 335 89 83 86 78 70 59 69 67 89
229 231 203 222 274 264 263 248 267 278 293 298 314 327 308 315 296 272 292 324 305 295 282 285 269 276 294 316 317 323 319 320 280 286 317 52 30 342 28 22 26 354 238 198 91 79 95 116 100 93 74 59 59 52
237 246 230 157 230 222 271 273 237 226 239 246 263 262 293 327 331 346 354 310 323 320 331 311 260 280 282 286 297 316 327 330 354 345 59 86 53 38 13 16 19 7 32 90 127 170 103 87 108 125 150 130 107 126
230 211 213 243 216 230 228 230 238 213 213 194 249 256 264 256 297 324 324 324 305 305 338 340 351 329 320 312 294 327 344 190 194 70 68 79 48 15 354 36 35 20 16 56 47 51 110 121 132 156 147 138 134 144
234 186 225 238 226 232 234 201 230 203 198 231 280 290 259 257 316 320 321 330 352 353 339 337 329 343 25 24 335 22 34 17 12 38 61 56 60 334 17 43 30 23 21 35 58 82 80 89 91 94 104 112 118 116
183 184 230 230 253 247 250 282 272 245 217 215 216 253 285 323 303 217 331 334 317 341 8 8 41 16 14 359 12 18 47 30 36 37 80 103 59 45 47 51 44 25 23 40 19 348 27 77 101 110 117 122 126 128
193 211 220 237 259 253 267 235 266 265 283 247 171 222 229 237 279 278 27 333 354 15 18 2 10 20 6 344 10 52 58 77 56 33 45 59 69 69 62 59 45 33 116 271 301 272 155 140 137 137 127 124 127 129
214 203 217 252 264 269 37 301 240 46 94 14 358 331 325 313 322 330 320 268 341 351 356 5 31 25 30 30 15 12 31 71 94 84 76 57 27 21 71 91 110 139 140 126 120 112 109 115 114 119 127 136 136 136